Location: Caltech
(34.1382°N, 118.1253°W)
Time: 03:39:46
(UTC-07:00)

SO-50 - Visible Passes

Search period start: 24 July 2014 00:00
Search period end: 03 August 2014 00:00
Orbit: 612 x 685 km, 64.6° (Epoch: 23 July)

Date Brightness Start Highest point End Pass type
(mag) Time Alt. Az. Time Alt. Az. Time Alt. Az.
24 Jul ? 00:02:57 10° NW 00:04:27 19° WNW 00:04:27 19° WNW visible
24 Jul ? 22:49:00 10° NNW 22:52:45 49° N 22:52:45 49° N visible
25 Jul ? 21:36:26 10° N 21:39:42 18° NE 21:41:06 16° ENE visible
25 Jul ? 23:15:54 10° NW 23:18:51 34° WNW 23:18:51 34° WNW visible
26 Jul ? 22:02:18 10° NNW 22:06:51 43° ENE 22:07:14 42° ENE visible
26 Jul ? 23:43:51 10° WNW 23:44:59 14° WNW 23:44:59 14° WNW visible
27 Jul ? 20:50:18 10° NNE 20:52:42 14° NE 20:55:05 10° ENE visible
27 Jul ? 22:28:58 10° NNW 22:33:26 69° W 22:33:26 69° W visible
28 Jul ? 21:15:42 10° N 21:19:56 31° NE 21:21:55 23° E visible
28 Jul ? 22:56:26 10° NW 22:59:40 25° W 22:59:40 25° W visible
29 Jul ? 21:42:07 10° NNW 21:46:54 82° ENE 21:48:14 48° SE visible
30 Jul ? 20:29:11 10° N 20:33:00 23° NE 20:36:50 10° ESE visible
30 Jul ? 22:09:15 10° NW 22:13:37 36° WSW 22:14:36 33° SW visible
31 Jul ? 20:55:20 10° NNW 21:00:03 58° ENE 21:03:17 20° SE visible
31 Jul ? 22:37:52 10° W 22:40:07 13° WSW 22:41:03 13° WSW visible
01 Aug ? 21:22:12 10° NW 21:26:51 52° WSW 21:29:49 21° S visible
02 Aug ? 20:08:39 10° NNW 20:13:10 41° ENE 20:17:43 10° SE visible
02 Aug ? 21:50:04 10° WNW 21:53:25 19° WSW 21:56:25 11° SSW visible
